Location: Cahoon Acres
(40.8736°N, 111.8994°W)
Time: 00:41:27
(UTC+00:00)

Courier 1B - All Passes

Search period start: 26 May 2020 00:00
Search period end: 05 June 2020 00:00
Orbit: 963 x 1209 km, 28.3° (Epoch: 24 May)

Date Brightness Start Highest point End Pass type
(mag) Time Alt. Az. Time Alt. Az. Time Alt. Az.
26 May - 08:05:20 10° SSW 08:10:39 20° SSE 08:16:00 10° ESE visible
26 May - 09:57:22 10° SW 10:04:02 31° S 10:10:37 10° ESE visible
26 May - 11:50:59 10° WSW 11:57:32 30° S 12:03:53 10° SE daylight
26 May - 13:46:03 10° WSW 13:50:46 18° SSW 13:55:21 10° SSE daylight
27 May - 07:12:35 10° S 07:17:00 16° SSE 07:21:27 10° ESE visible
27 May - 09:03:48 10° SW 09:10:17 29° S 09:16:45 10° ESE visible
27 May - 10:57:04 10° WSW 11:03:47 32° S 11:10:23 10° SE visible
27 May - 12:51:36 10° WSW 12:57:09 21° SSW 13:02:33 10° SSE daylight
28 May - 06:20:32 10° S 06:23:23 12° SSE 06:26:16 10° SE night (unlit)
28 May - 08:10:24 10° SW 08:16:32 26° SSE 08:22:45 10° ESE visible
28 May - 10:03:16 10° WSW 10:10:02 32° S 10:16:45 10° ESE visible
28 May - 11:57:22 10° WSW 12:03:29 25° SSW 12:09:27 10° SE daylight
28 May - 13:54:26 10° SW 13:56:34 11° SSW 13:58:41 10° SSW daylight
29 May - 07:17:12 10° SSW 07:22:51 23° SSE 07:28:36 10° ESE visible
29 May - 09:09:33 10° SW 09:16:15 32° S 09:22:59 10° ESE visible
29 May - 11:03:19 10° WSW 11:09:46 28° SSW 11:16:08 10° SE visible
29 May - 12:58:52 10° WSW 13:02:59 15° SSW 13:07:03 10° S daylight
30 May - 06:24:16 10° SSW 06:29:12 19° SSE 06:34:13 10° ESE night (unlit)
30 May - 08:15:59 10° SW 08:22:30 30° S 08:29:07 10° ESE visible
30 May - 10:09:23 10° WSW 10:16:01 31° S 10:22:38 10° SE visible
30 May - 12:04:11 10° WSW 12:09:22 19° SSW 12:14:27 10° SSE daylight
31 May - 05:31:47 10° S 05:35:36 15° SSE 05:39:29 10° ESE night (unlit)
31 May - 07:22:33 10° SW 07:28:46 28° SSE 07:35:08 10° ESE visible
31 May - 09:15:35 10° WSW 09:22:15 32° S 09:28:59 10° SE visible
31 May - 11:09:52 10° WSW 11:15:41 23° SSW 11:21:27 10° SSE visible
01 Jun - 04:40:31 10° SSE 04:42:02 11° SSE 04:43:36 10° SE visible
01 Jun - 06:29:18 10° SW 06:35:05 25° SSE 06:41:03 10° ESE night (unlit)
01 Jun - 08:21:54 10° WSW 08:28:29 32° S 08:35:15 10° ESE visible
01 Jun - 10:15:47 10° WSW 10:21:59 26° SSW 10:28:11 10° SE visible
01 Jun - 12:12:06 10° SW 12:15:10 13° SSW 12:18:13 10° S daylight
02 Jun - 05:36:16 10° SSW 05:41:26 21° SSE 05:46:48 10° ESE visible
02 Jun - 07:28:19 10° SW 07:34:44 31° S 07:41:23 10° ESE visible
02 Jun - 09:21:51 10° WSW 09:28:14 29° S 09:34:43 10° SE visible
02 Jun - 11:17:02 10° WSW 11:21:32 16° SSW 11:26:03 10° SSE visible
03 Jun - 04:43:33 10° SSW 04:47:51 17° SSE 04:52:17 10° ESE visible
03 Jun - 06:34:53 10° SW 06:41:02 29° S 06:47:26 10° ESE visible
03 Jun - 08:28:03 10° WSW 08:34:30 30° S 08:41:06 10° SE visible
03 Jun - 10:22:35 10° WSW 10:27:52 20° SSW 10:33:13 10° SSE visible
04 Jun - 03:51:25 10° S 03:54:19 13° SSE 03:57:17 10° SE visible
04 Jun - 05:41:34 10° SW 05:47:21 26° SSE 05:53:24 10° ESE visible
04 Jun - 07:34:22 10° WSW 07:40:45 31° S 07:47:23 10° ESE visible
04 Jun - 09:28:25 10° WSW 09:34:11 23° SSW 09:40:03 10° SSE visible
